Time,TemperatureF,DewpointF,PressureIn,WindDirection,WindDirectionDegrees,WindSpeedMPH,WindSpeedGustMPH,Humidity,HourlyPrecipIn,Conditions,Clouds,dailyrainin,SolarRadiationWatts/m^2,SoftwareType,DateUTC
2013-02-02 00:06:00,55.1,51.6,29.71,SSE,148,7.0,9.0,88,0.00,,,0.00,0,Wunderground v.1.15,2013-02-01 23:06:00,
2013-02-02 00:11:00,55.1,51.6,29.71,South,173,6.0,6.0,88,0.00,,,0.00,0,Wunderground v.1.15,2013-02-01 23:11:00,
2013-02-02 00:21:00,55.0,51.5,29.70,South,178,6.0,7.0,88,0.00,,,0.00,0,Wunderground v.1.15,2013-02-01 23:21:00,
2013-02-02 00:26:00,55.1,51.9,29.70,SE,143,6.0,7.0,89,0.00,,,0.00,0,Wunderground v.1.15,2013-02-01 23:26:00,
2013-02-02 00:36:00,55.0,51.8,29.69,SSE,163,6.0,7.0,89,0.00,,,0.00,0,Wunderground v.1.15,2013-02-01 23:36:00,
2013-02-02 00:46:00,55.0,51.8,29.69,SE,133,7.0,13.0,89,0.00,,,0.00,0,Wunderground v.1.15,2013-02-01 23:46:00,
2013-02-02 00:51:00,55.0,51.8,29.68,SSW,204,6.0,6.0,89,0.00,,,0.00,0,Wunderground v.1.15,2013-02-01 23:51:00,
2013-02-02 00:56:00,55.0,51.8,29.68,SSE,164,6.0,8.0,89,0.00,,,0.00,0,Wunderground v.1.15,2013-02-01 23:56:00,
2013-02-02 01:06:00,55.1,51.9,29.67,South,171,7.0,9.0,89,0.00,,,0.00,0,Wunderground v.1.15,2013-02-02 00:06:00,
2013-02-02 01:11:00,55.0,51.8,29.67,SE,140,7.0,11.0,89,0.00,,,0.00,0,Wunderground v.1.15,2013-02-02 00:11:00,
2013-02-02 01:21:00,54.9,51.7,29.67,SSE,153,5.0,8.0,89,0.00,,,0.00,0,Wunderground v.1.15,2013-02-02 00:21:00,
2013-02-02 01:26:00,55.0,52.1,29.66,SSE,157,6.0,8.0,90,0.00,,,0.00,0,Wunderground v.1.15,2013-02-02 00:26:00,
2013-02-02 01:31:00,55.0,52.1,29.66,ESE,111,5.0,8.0,90,0.00,,,0.00,0,Wunderground v.1.15,2013-02-02 00:31:00,
2013-02-02 01:36:00,55.0,52.1,29.65,SE,127,6.0,8.0,90,0.00,,,0.00,0,Wunderground v.1.15,2013-02-02 00:36:00,
2013-02-02 01:46:00,54.9,52.0,29.65,SSE,158,5.0,6.0,90,0.00,,,0.00,0,Wunderground v.1.15,2013-02-02 00:46:00,
2013-02-02 01:51:00,55.1,52.2,29.65,SE,128,6.0,6.0,90,0.00,,,0.00,0,Wunderground v.1.15,2013-02-02 00:51:00,
2013-02-02 02:01:00,55.1,52.2,29.65,South,171,6.0,8.0,90,0.00,,,0.00,0,Wunderground v.1.15,2013-02-02 01:01:00,
2013-02-02 02:06:00,55.1,52.2,29.64,SSE,166,7.0,8.0,90,0.00,,,0.00,0,Wunderground v.1.15,2013-02-02 01:06:00,
2013-02-02 02:16:00,55.0,52.1,29.64,SSE,148,6.0,7.0,90,0.00,,,0.00,0,Wunderground v.1.15,2013-02-02 01:16:00,
2013-02-02 02:26:00,54.9,52.0,29.64,SSW,196,5.0,6.0,90,0.00,,,0.00,0,Wunderground v.1.15,2013-02-02 01:26:00,
2013-02-02 02:31:00,54.9,52.0,29.63,South,179,5.0,5.0,90,0.00,,,0.00,0,Wunderground v.1.15,2013-02-02 01:31:00,
2013-02-02 02:41:00,55.0,52.1,29.63,East,94,5.0,8.0,90,0.00,,,0.00,0,Wunderground v.1.15,2013-02-02 01:41:00,
2013-02-02 02:46:00,54.9,52.0,29.62,SSW,206,5.0,8.0,90,0.00,,,0.00,0,Wunderground v.1.15,2013-02-02 01:46:00,
2013-02-02 02:56:00,54.7,52.1,29.61,SE,134,4.0,10.0,91,0.00,,,0.00,0,Wunderground v.1.15,2013-02-02 01:56:00,
2013-02-02 03:06:00,54.5,51.9,29.60,South,175,6.0,6.0,91,0.00,,,0.00,0,Wunderground v.1.15,2013-02-02 02:06:00,
2013-02-02 03:11:00,54.4,51.8,29.60,SSE,163,5.0,6.0,91,0.00,,,0.00,0,Wunderground v.1.15,2013-02-02 02:11:00,
2013-02-02 03:21:00,54.3,51.7,29.60,SE,143,5.0,5.0,91,0.00,,,0.00,0,Wunderground v.1.15,2013-02-02 02:21:00,
2013-02-02 03:26:00,54.1,51.8,29.60,ESE,119,4.0,9.0,92,0.00,,,0.00,0,Wunderground v.1.15,2013-02-02 02:26:00,
2013-02-02 03:36:00,54.0,51.7,29.59,SSE,159,5.0,6.0,92,0.00,,,0.00,0,Wunderground v.1.15,2013-02-02 02:36:00,
2013-02-02 03:41:00,54.0,51.7,29.59,SSE,162,6.0,6.0,92,0.00,,,0.00,0,Wunderground v.1.15,2013-02-02 02:41:00,
2013-02-02 03:51:00,54.1,51.8,29.58,SSW,198,5.0,5.0,92,0.00,,,0.00,0,Wunderground v.1.15,2013-02-02 02:51:00,
2013-02-02 04:01:00,54.2,52.2,29.58,SE,142,5.0,5.0,93,0.00,,,0.00,0,Wunderground v.1.15,2013-02-02 03:01:00,
2013-02-02 04:06:00,54.2,52.2,29.58,South,182,4.0,7.0,93,0.00,,,0.00,0,Wunderground v.1.15,2013-02-02 03:06:00,
2013-02-02 04:16:00,54.1,51.8,29.57,SSE,154,6.0,7.0,92,0.00,,,0.00,0,Wunderground v.1.15,2013-02-02 03:16:00,
2013-02-02 04:26:00,54.2,52.2,29.57,SSE,165,6.0,7.0,93,0.00,,,0.00,0,Wunderground v.1.15,2013-02-02 03:26:00,
2013-02-02 04:31:00,54.2,52.2,29.56,SSE,160,6.0,6.0,93,0.00,,,0.00,0,Wunderground v.1.15,2013-02-02 03:31:00,
2013-02-02 04:41:00,54.3,52.3,29.56,South,180,5.0,5.0,93,0.00,,,0.00,0,Wunderground v.1.15,2013-02-02 03:41:00,
2013-02-02 04:46:00,54.3,52.3,29.56,South,186,5.0,5.0,93,0.00,,,0.00,0,Wunderground v.1.15,2013-02-02 03:46:00,
2013-02-02 04:51:00,54.3,52.3,29.55,SSE,155,6.0,6.0,93,0.00,,,0.00,0,Wunderground v.1.15,2013-02-02 03:51:00,
2013-02-02 05:01:00,54.3,52.0,29.54,South,171,5.0,7.0,92,0.00,,,0.00,0,Wunderground v.1.15,2013-02-02 04:01:00,
2013-02-02 05:06:00,54.3,52.0,29.53,SE,142,5.0,7.0,92,0.00,,,0.00,0,Wunderground v.1.15,2013-02-02 04:06:00,
2013-02-02 05:16:00,54.3,52.0,29.52,SSE,161,5.0,6.0,92,0.00,,,0.00,0,Wunderground v.1.15,2013-02-02 04:16:00,
2013-02-02 05:21:00,54.3,52.0,29.52,SSE,163,5.0,5.0,92,0.00,,,0.00,0,Wunderground v.1.15,2013-02-02 04:21:00,
2013-02-02 05:26:00,54.2,51.9,29.51,SSE,163,5.0,5.0,92,0.00,,,0.00,0,Wunderground v.1.15,2013-02-02 04:26:00,
2013-02-02 05:36:00,54.2,51.9,29.50,SSE,165,5.0,5.0,92,0.00,,,0.00,0,Wunderground v.1.15,2013-02-02 04:36:00,
2013-02-02 05:46:00,54.2,51.9,29.50,SSW,192,6.0,9.0,92,0.00,,,0.00,0,Wunderground v.1.15,2013-02-02 04:46:00,
2013-02-02 05:51:00,54.1,52.1,29.50,South,181,6.0,6.0,93,0.00,,,0.00,0,Wunderground v.1.15,2013-02-02 04:51:00,
2013-02-02 05:56:00,54.1,52.1,29.50,SE,140,6.0,8.0,93,0.00,,,0.00,0,Wunderground v.1.15,2013-02-02 04:56:00,
2013-02-02 06:01:00,54.0,52.0,29.50,SE,136,6.0,6.0,93,0.00,,,0.00,0,Wunderground v.1.15,2013-02-02 05:01:00,
2013-02-02 06:06:00,54.0,52.0,29.50,South,174,7.0,7.0,93,0.00,,,0.00,0,Wunderground v.1.15,2013-02-02 05:06:00,
2013-02-02 06:16:00,53.9,51.9,29.48,SSE,155,8.0,11.0,93,0.00,,,0.00,0,Wunderground v.1.15,2013-02-02 05:16:00,
2013-02-02 06:26:00,53.8,51.8,29.48,SE,132,8.0,9.0,93,0.00,,,0.00,0,Wunderground v.1.15,2013-02-02 05:26:00,
2013-02-02 06:36:00,53.8,52.1,29.48,West,264,6.0,7.0,94,0.00,,,0.00,0,Wunderground v.1.15,2013-02-02 05:36:00,
2013-02-02 06:41:00,53.8,52.1,29.48,SE,140,6.0,7.0,94,0.00,,,0.00,0,Wunderground v.1.15,2013-02-02 05:41:00,
2013-02-02 06:46:00,53.9,52.2,29.48,WSW,252,7.0,7.0,94,0.00,,,0.00,0,Wunderground v.1.15,2013-02-02 05:46:00,
2013-02-02 06:56:00,53.9,52.2,29.48,WNW,292,7.0,11.0,94,0.00,,,0.00,0,Wunderground v.1.15,2013-02-02 05:56:00,
2013-02-02 07:01:00,53.8,52.1,29.48,SSE,167,6.0,6.0,94,0.00,,,0.00,0,Wunderground v.1.15,2013-02-02 06:01:00,
2013-02-02 07:11:00,53.8,52.1,29.48,South,179,7.0,7.0,94,0.00,,,0.00,0,Wunderground v.1.15,2013-02-02 06:11:00,
2013-02-02 07:21:00,53.9,52.2,29.48,SSE,161,7.0,12.0,94,0.00,,,0.00,0,Wunderground v.1.15,2013-02-02 06:21:00,
2013-02-02 07:26:00,53.8,52.1,29.47,South,172,8.0,12.0,94,0.00,,,0.00,0,Wunderground v.1.15,2013-02-02 06:26:00,
2013-02-02 07:36:00,53.9,52.2,29.47,SSE,157,7.0,9.0,94,0.00,,,0.00,5,Wunderground v.1.15,2013-02-02 06:36:00,
2013-02-02 07:46:00,53.9,52.2,29.46,SE,137,5.0,10.0,94,0.00,,,0.00,11,Wunderground v.1.15,2013-02-02 06:46:00,
2013-02-02 07:51:00,53.9,52.2,29.46,South,180,5.0,11.0,94,0.00,,,0.00,16,Wunderground v.1.15,2013-02-02 06:51:00,
2013-02-02 07:56:00,54.0,52.3,29.46,SE,128,5.0,11.0,94,0.00,,,0.00,21,Wunderground v.1.15,2013-02-02 06:56:00,
2013-02-02 08:06:00,54.0,52.3,29.45,South,174,7.0,7.0,94,0.00,,,0.00,33,Wunderground v.1.15,2013-02-02 07:06:00,
2013-02-02 08:16:00,54.2,52.5,29.46,SSE,163,7.0,9.0,94,0.00,,,0.00,35,Wunderground v.1.15,2013-02-02 07:16:00,
2013-02-02 08:21:00,54.2,52.5,29.46,SSE,163,7.0,7.0,94,0.00,,,0.00,40,Wunderground v.1.15,2013-02-02 07:21:00,
2013-02-02 08:31:00,54.2,52.5,29.45,SE,128,6.0,6.0,94,0.00,,,0.00,62,Wunderground v.1.15,2013-02-02 07:31:00,
2013-02-02 08:36:00,54.3,52.6,29.45,South,180,6.0,6.0,94,0.00,,,0.00,65,Wunderground v.1.15,2013-02-02 07:36:00,
2013-02-02 08:46:00,54.5,52.5,29.45,SE,132,6.0,6.0,93,0.00,,,0.00,118,Wunderground v.1.15,2013-02-02 07:46:00,
2013-02-02 08:51:00,54.6,52.6,29.45,SSE,165,5.0,8.0,93,0.00,,,0.00,120,Wunderground v.1.15,2013-02-02 07:51:00,
2013-02-02 09:01:00,54.8,52.8,29.44,SE,135,5.0,5.0,93,0.00,,,0.00,88,Wunderground v.1.15,2013-02-02 08:01:00,
2013-02-02 09:11:00,54.9,52.9,29.44,East,85,6.0,6.0,93,0.00,,,0.00,100,Wunderground v.1.15,2013-02-02 08:11:00,
2013-02-02 09:16:00,55.0,52.7,29.44,South,190,5.0,6.0,92,0.00,,,0.00,111,Wunderground v.1.15,2013-02-02 08:16:00,
2013-02-02 09:26:00,55.0,52.7,29.44,SSE,156,5.0,6.0,92,0.00,,,0.00,120,Wunderground v.1.15,2013-02-02 08:26:00,
2013-02-02 09:31:00,55.1,52.8,29.43,SE,140,4.0,9.0,92,0.00,,,0.00,120,Wunderground v.1.15,2013-02-02 08:31:00,
2013-02-02 09:41:00,55.1,52.8,29.43,South,174,6.0,6.0,92,0.00,,,0.00,120,Wunderground v.1.15,2013-02-02 08:41:00,
2013-02-02 09:51:00,55.2,52.9,29.42,SSE,150,5.0,7.0,92,0.00,,,0.00,128,Wunderground v.1.15,2013-02-02 08:51:00,
2013-02-02 09:56:00,55.3,53.0,29.42,SSE,159,4.0,7.0,92,0.00,,,0.00,121,Wunderground v.1.15,2013-02-02 08:56:00,
2013-02-02 10:06:00,55.4,53.1,29.42,SSE,163,4.0,6.0,92,0.00,,,0.00,97,Wunderground v.1.15,2013-02-02 09:06:00,
2013-02-02 10:11:00,55.5,53.2,29.42,SSE,157,5.0,10.0,92,0.00,,,0.00,125,Wunderground v.1.15,2013-02-02 09:11:00,
2013-02-02 10:21:00,55.7,53.1,29.42,SE,133,5.0,5.0,91,0.00,,,0.00,116,Wunderground v.1.15,2013-02-02 09:21:00,
2013-02-02 10:26:00,55.8,53.2,29.41,ESE,117,4.0,5.0,91,0.00,,,0.00,120,Wunderground v.1.15,2013-02-02 09:26:00,
2013-02-02 10:36:00,56.0,53.4,29.42,ESE,103,5.0,5.0,91,0.00,,,0.00,155,Wunderground v.1.15,2013-02-02 09:36:00,
2013-02-02 10:41:00,56.2,53.3,29.41,SE,134,6.0,10.0,90,0.00,,,0.00,158,Wunderground v.1.15,2013-02-02 09:41:00,
2013-02-02 10:51:00,56.6,53.7,29.40,SSW,200,5.0,5.0,90,0.00,,,0.00,230,Wunderground v.1.15,2013-02-02 09:51:00,
2013-02-02 10:56:00,57.0,53.8,29.41,SE,130,5.0,5.0,89,0.00,,,0.00,334,Wunderground v.1.15,2013-02-02 09:56:00,
2013-02-02 11:01:00,57.2,53.7,29.41,SE,146,5.0,5.0,88,0.00,,,0.00,250,Wunderground v.1.15,2013-02-02 10:01:00,
2013-02-02 11:11:00,57.4,53.9,29.42,South,171,8.0,9.0,88,0.00,,,0.00,360,Wunderground v.1.15,2013-02-02 10:11:00,
2013-02-02 11:16:00,57.6,53.8,29.41,SE,140,8.0,9.0,87,0.00,,,0.00,285,Wunderground v.1.15,2013-02-02 10:16:00,
2013-02-02 11:26:00,57.9,53.7,29.40,South,177,6.0,8.0,86,0.00,,,0.00,223,Wunderground v.1.15,2013-02-02 10:26:00,
2013-02-02 11:31:00,57.9,53.4,29.40,SE,135,5.0,11.0,85,0.00,,,0.00,174,Wunderground v.1.15,2013-02-02 10:31:00,
2013-02-02 11:41:00,57.8,53.0,29.40,South,179,6.0,9.0,84,0.00,,,0.00,156,Wunderground v.1.15,2013-02-02 10:41:00,
2013-02-02 11:46:00,58.0,52.9,29.40,South,170,8.0,11.0,83,0.00,,,0.00,271,Wunderground v.1.15,2013-02-02 10:46:00,
2013-02-02 11:56:00,58.0,52.5,29.38,SSE,148,8.0,9.0,82,0.00,,,0.00,193,Wunderground v.1.15,2013-02-02 10:56:00,
2013-02-02 12:01:00,58.3,53.2,29.38,SSE,148,7.0,10.0,83,0.00,,,0.00,299,Wunderground v.1.15,2013-02-02 11:01:00,
2013-02-02 12:11:00,58.4,52.9,29.37,SSE,167,8.0,8.0,82,0.00,,,0.00,568,Wunderground v.1.15,2013-02-02 11:11:00,
2013-02-02 12:16:00,58.9,53.1,29.36,South,173,7.0,10.0,81,0.00,,,0.00,555,Wunderground v.1.15,2013-02-02 11:16:00,
2013-02-02 12:31:00,59.5,53.0,29.34,South,190,7.0,7.0,79,0.00,,,0.00,591,Wunderground v.1.15,2013-02-02 11:31:00,
2013-02-02 12:36:00,60.1,53.6,29.33,SSW,211,5.0,7.0,79,0.00,,,0.00,675,Wunderground v.1.15,2013-02-02 11:36:00,
2013-02-02 12:46:00,59.6,52.7,29.32,SSE,156,5.0,5.0,78,0.00,,,0.00,206,Wunderground v.1.15,2013-02-02 11:46:00,
2013-02-02 12:51:00,59.4,52.5,29.32,SE,146,5.0,5.0,78,0.00,,,0.00,213,Wunderground v.1.15,2013-02-02 11:51:00,
2013-02-02 13:01:00,59.3,52.8,29.30,SE,125,4.0,4.0,79,0.00,,,0.00,178,Wunderground v.1.15,2013-02-02 12:01:00,
2013-02-02 13:11:00,59.0,52.5,29.31,SSW,199,4.0,4.0,79,0.00,,,0.00,105,Wunderground v.1.15,2013-02-02 12:11:00,
2013-02-02 13:21:00,58.9,52.4,29.30,SSE,165,4.0,5.0,79,0.00,,,0.00,120,Wunderground v.1.15,2013-02-02 12:21:00,
2013-02-02 13:26:00,58.9,52.4,29.31,South,174,6.0,6.0,79,0.00,,,0.00,105,Wunderground v.1.15,2013-02-02 12:26:00,
2013-02-02 13:36:00,58.8,52.3,29.30,South,174,7.0,8.0,79,0.00,,,0.00,90,Wunderground v.1.15,2013-02-02 12:36:00,
2013-02-02 13:41:00,58.9,52.4,29.30,South,173,6.0,9.0,79,0.00,,,0.00,118,Wunderground v.1.15,2013-02-02 12:41:00,
2013-02-02 13:51:00,58.8,52.6,29.30,South,179,8.0,12.0,80,0.00,,,0.00,120,Wunderground v.1.15,2013-02-02 12:51:00,
2013-02-02 13:56:00,58.3,52.8,29.30,SE,146,9.0,12.0,82,0.00,,,0.00,81,Wunderground v.1.15,2013-02-02 12:56:00,
2013-02-02 14:06:00,57.8,53.0,29.29,SSE,159,9.0,14.0,84,0.00,,,0.00,69,Wunderground v.1.15,2013-02-02 13:06:00,
2013-02-02 14:11:00,57.7,53.2,29.29,SSE,168,10.0,11.0,85,0.00,,,0.00,69,Wunderground v.1.15,2013-02-02 13:11:00,
2013-02-02 14:21:00,57.4,53.6,29.29,SSE,167,8.0,8.0,87,0.00,,,0.01,91,Wunderground v.1.15,2013-02-02 13:21:00,
2013-02-02 14:31:00,57.2,53.7,29.28,SE,138,10.0,10.0,88,0.00,,,0.01,33,Wunderground v.1.15,2013-02-02 13:31:00,
2013-02-02 14:36:00,57.2,53.7,29.27,SSE,147,10.0,10.0,88,0.00,,,0.01,74,Wunderground v.1.15,2013-02-02 13:36:00,
2013-02-02 14:41:00,57.2,53.7,29.26,SE,134,9.0,13.0,88,0.00,,,0.01,91,Wunderground v.1.15,2013-02-02 13:41:00,
2013-02-02 14:51:00,57.1,53.9,29.26,SSE,159,9.0,9.0,89,0.00,,,0.01,37,Wunderground v.1.15,2013-02-02 13:51:00,
2013-02-02 15:01:00,57.0,53.8,29.27,SSE,165,8.0,9.0,89,0.00,,,0.01,46,Wunderground v.1.15,2013-02-02 14:01:00,
2013-02-02 15:11:00,57.0,53.8,29.26,SE,144,9.0,11.0,89,0.00,,,0.01,40,Wunderground v.1.15,2013-02-02 14:11:00,
2013-02-02 15:16:00,57.0,53.5,29.26,South,182,9.0,11.0,88,0.00,,,0.01,33,Wunderground v.1.15,2013-02-02 14:16:00,
2013-02-02 15:21:00,57.1,53.6,29.26,SSW,202,10.0,10.0,88,0.00,,,0.01,12,Wunderground v.1.15,2013-02-02 14:21:00,
2013-02-02 15:31:00,57.1,53.6,29.27,SE,144,8.0,8.0,88,0.00,,,0.01,33,Wunderground v.1.15,2013-02-02 14:31:00,
2013-02-02 15:36:00,57.0,53.5,29.28,WSW,249,8.0,14.0,88,0.00,,,0.02,7,Wunderground v.1.15,2013-02-02 14:36:00,
2013-02-02 15:46:00,54.2,51.0,29.28,SW,225,11.0,13.0,89,0.14,,,0.06,37,Wunderground v.1.15,2013-02-02 14:46:00,
2013-02-02 15:51:00,53.8,51.2,29.28,SW,215,10.0,13.0,91,0.08,,,0.06,93,Wunderground v.1.15,2013-02-02 14:51:00,
2013-02-02 15:56:00,53.7,51.1,29.27,WSW,244,9.0,13.0,91,0.08,,,0.06,77,Wunderground v.1.15,2013-02-02 14:56:00,
2013-02-02 16:06:00,53.6,51.3,29.27,SW,219,9.0,12.0,92,0.04,,,0.06,44,Wunderground v.1.15,2013-02-02 15:06:00,
2013-02-02 16:16:00,53.6,50.7,29.27,WSW,241,10.0,10.0,90,0.00,,,0.06,44,Wunderground v.1.15,2013-02-02 15:16:00,
2013-02-02 16:26:00,53.7,50.5,29.27,WSW,256,10.0,12.0,89,0.00,,,0.06,84,Wunderground v.1.15,2013-02-02 15:26:00,
2013-02-02 16:36:00,54.0,50.5,29.27,SSW,207,10.0,10.0,88,0.00,,,0.06,107,Wunderground v.1.15,2013-02-02 15:36:00,
2013-02-02 16:41:00,54.0,49.9,29.27,SW,229,11.0,11.0,86,0.00,,,0.06,51,Wunderground v.1.15,2013-02-02 15:41:00,
2013-02-02 16:51:00,53.8,49.4,29.26,SW,216,12.0,18.0,85,0.00,,,0.06,28,Wunderground v.1.15,2013-02-02 15:51:00,
2013-02-02 17:01:00,53.7,49.0,29.26,SW,231,11.0,11.0,84,0.00,,,0.06,18,Wunderground v.1.15,2013-02-02 16:01:00,
2013-02-02 17:06:00,53.6,48.9,29.26,WSW,246,9.0,11.0,84,0.00,,,0.06,12,Wunderground v.1.15,2013-02-02 16:06:00,
2013-02-02 17:16:00,53.5,48.5,29.26,SW,227,9.0,12.0,83,0.00,,,0.06,7,Wunderground v.1.15,2013-02-02 16:16:00,
2013-02-02 17:21:00,53.6,48.2,29.26,WSW,250,11.0,16.0,82,0.00,,,0.06,5,Wunderground v.1.15,2013-02-02 16:21:00,
2013-02-02 17:31:00,53.4,48.0,29.26,West,263,10.0,10.0,82,0.00,,,0.06,0,Wunderground v.1.15,2013-02-02 16:31:00,
2013-02-02 17:41:00,53.1,48.4,29.27,WSW,244,9.0,15.0,84,0.00,,,0.06,0,Wunderground v.1.15,2013-02-02 16:41:00,
2013-02-02 17:51:00,53.2,48.2,29.27,WSW,242,14.0,17.0,83,0.00,,,0.06,0,Wunderground v.1.15,2013-02-02 16:51:00,
2013-02-02 18:01:00,52.8,47.1,29.28,SSW,205,15.0,15.0,81,0.00,,,0.06,0,Wunderground v.1.15,2013-02-02 17:01:00,
2013-02-02 18:06:00,52.6,46.6,29.28,SW,235,14.0,15.0,80,0.00,,,0.06,0,Wunderground v.1.15,2013-02-02 17:06:00,
2013-02-02 18:16:00,52.3,46.0,29.27,WSW,257,12.0,22.0,79,0.00,,,0.06,0,Wunderground v.1.15,2013-02-02 17:16:00,
2013-02-02 18:21:00,52.2,45.9,29.28,WSW,239,12.0,12.0,79,0.00,,,0.06,0,Wunderground v.1.15,2013-02-02 17:21:00,
2013-02-02 18:31:00,52.3,45.3,29.28,WSW,243,13.0,13.0,77,0.00,,,0.06,0,Wunderground v.1.15,2013-02-02 17:31:00,
2013-02-02 18:41:00,52.4,44.7,29.28,SW,224,16.0,23.0,75,0.00,,,0.06,0,Wunderground v.1.15,2013-02-02 17:41:00,
2013-02-02 18:46:00,52.4,44.4,29.29,WSW,238,17.0,23.0,74,0.00,,,0.06,0,Wunderground v.1.15,2013-02-02 17:46:00,
2013-02-02 18:56:00,52.3,43.5,29.29,SW,224,18.0,21.0,72,0.00,,,0.06,0,Wunderground v.1.15,2013-02-02 17:56:00,
2013-02-02 19:01:00,52.4,43.3,29.30,SW,235,18.0,18.0,71,0.00,,,0.06,0,Wunderground v.1.15,2013-02-02 18:01:00,
2013-02-02 19:11:00,52.4,43.3,29.29,WSW,254,17.0,17.0,71,0.00,,,0.06,0,Wunderground v.1.15,2013-02-02 18:11:00,
2013-02-02 19:16:00,52.5,42.6,29.30,WSW,240,20.0,21.0,69,0.00,,,0.06,0,Wunderground v.1.15,2013-02-02 18:16:00,
2013-02-02 19:21:00,52.5,42.6,29.30,WNW,284,21.0,21.0,69,0.00,,,0.06,0,Wunderground v.1.15,2013-02-02 18:21:00,
2013-02-02 19:31:00,52.3,42.4,29.30,West,269,16.0,19.0,69,0.00,,,0.06,0,Wunderground v.1.15,2013-02-02 18:31:00,
2013-02-02 19:36:00,52.4,42.1,29.30,SW,221,19.0,19.0,68,0.00,,,0.06,0,Wunderground v.1.15,2013-02-02 18:36:00,
2013-02-02 19:46:00,52.2,43.1,29.30,WSW,258,13.0,17.0,71,0.00,,,0.06,0,Wunderground v.1.15,2013-02-02 18:46:00,
2013-02-02 19:51:00,52.2,43.4,29.30,WSW,242,11.0,13.0,72,0.00,,,0.06,0,Wunderground v.1.15,2013-02-02 18:51:00,
2013-02-02 19:56:00,52.1,43.3,29.30,SW,219,12.0,13.0,72,0.00,,,0.06,0,Wunderground v.1.15,2013-02-02 18:56:00,
2013-02-02 20:06:00,52.1,42.6,29.31,SW,223,14.0,21.0,70,0.00,,,0.06,0,Wunderground v.1.15,2013-02-02 19:06:00,
2013-02-02 20:16:00,52.2,41.6,29.30,West,261,16.0,16.0,67,0.00,,,0.06,0,Wunderground v.1.15,2013-02-02 19:16:00,
2013-02-02 20:21:00,52.2,41.6,29.30,WSW,242,14.0,20.0,67,0.00,,,0.06,0,Wunderground v.1.15,2013-02-02 19:21:00,
2013-02-02 20:31:00,52.1,42.2,29.30,West,264,16.0,19.0,69,0.00,,,0.06,0,Wunderground v.1.15,2013-02-02 19:31:00,
2013-02-02 20:36:00,51.9,42.8,29.30,WSW,240,13.0,19.0,71,0.00,,,0.06,0,Wunderground v.1.15,2013-02-02 19:36:00,
2013-02-02 20:41:00,51.7,42.2,29.30,SW,234,12.0,15.0,70,0.00,,,0.06,0,Wunderground v.1.15,2013-02-02 19:41:00,
2013-02-02 20:51:00,51.6,41.8,29.30,WSW,239,13.0,16.0,69,0.00,,,0.06,0,Wunderground v.1.15,2013-02-02 19:51:00,
2013-02-02 21:01:00,51.6,41.0,29.32,WSW,250,11.0,11.0,67,0.00,,,0.06,0,Wunderground v.1.15,2013-02-02 20:01:00,
2013-02-02 21:11:00,51.7,40.3,29.32,SW,228,14.0,14.0,65,0.00,,,0.06,0,Wunderground v.1.15,2013-02-02 20:11:00,
2013-02-02 21:16:00,51.9,40.5,29.33,SW,225,15.0,21.0,65,0.00,,,0.06,0,Wunderground v.1.15,2013-02-02 20:16:00,
2013-02-02 21:21:00,52.0,40.2,29.32,WSW,245,16.0,18.0,64,0.00,,,0.06,0,Wunderground v.1.15,2013-02-02 20:21:00,
2013-02-02 21:31:00,52.0,39.4,29.32,SW,233,16.0,16.0,62,0.00,,,0.06,0,Wunderground v.1.15,2013-02-02 20:31:00,
2013-02-02 21:36:00,52.0,39.4,29.31,SW,228,16.0,22.0,62,0.00,,,0.06,0,Wunderground v.1.15,2013-02-02 20:36:00,
2013-02-02 21:46:00,51.8,40.4,29.32,SSW,211,11.0,14.0,65,0.00,,,0.06,0,Wunderground v.1.15,2013-02-02 20:46:00,
2013-02-02 21:56:00,51.9,39.3,29.31,SW,235,15.0,20.0,62,0.00,,,0.06,0,Wunderground v.1.15,2013-02-02 20:56:00,
2013-02-02 22:01:00,51.9,39.7,29.32,SW,230,14.0,14.0,63,0.00,,,0.06,0,Wunderground v.1.15,2013-02-02 21:01:00,
2013-02-02 22:11:00,51.9,39.7,29.32,SW,229,15.0,15.0,63,0.00,,,0.06,0,Wunderground v.1.15,2013-02-02 21:11:00,
2013-02-02 22:16:00,51.9,39.7,29.32,South,182,13.0,15.0,63,0.00,,,0.06,0,Wunderground v.1.15,2013-02-02 21:16:00,
2013-02-02 22:26:00,52.0,39.4,29.31,West,259,14.0,20.0,62,0.00,,,0.06,0,Wunderground v.1.15,2013-02-02 21:26:00,
2013-02-02 22:36:00,51.9,40.1,29.31,SW,224,10.0,14.0,64,0.00,,,0.06,0,Wunderground v.1.15,2013-02-02 21:36:00,
2013-02-02 22:41:00,51.9,40.1,29.31,SW,214,8.0,18.0,64,0.00,,,0.06,0,Wunderground v.1.15,2013-02-02 21:41:00,
2013-02-02 22:51:00,51.6,40.2,29.31,WNW,301,10.0,10.0,65,0.00,,,0.06,0,Wunderground v.1.15,2013-02-02 21:51:00,
2013-02-02 22:56:00,51.6,39.8,29.31,SW,223,11.0,11.0,64,0.00,,,0.06,0,Wunderground v.1.15,2013-02-02 21:56:00,
2013-02-02 23:06:00,51.6,40.6,29.31,SW,228,6.0,11.0,66,0.00,,,0.06,0,Wunderground v.1.15,2013-02-02 22:06:00,
2013-02-02 23:11:00,51.6,40.6,29.31,SSW,203,6.0,6.0,66,0.00,,,0.06,0,Wunderground v.1.15,2013-02-02 22:11:00,
2013-02-02 23:16:00,51.6,40.2,29.31,WSW,242,12.0,12.0,65,0.00,,,0.06,0,Wunderground v.1.15,2013-02-02 22:16:00,
2013-02-02 23:26:00,51.6,39.8,29.31,WSW,238,11.0,20.0,64,0.00,,,0.06,0,Wunderground v.1.15,2013-02-02 22:26:00,
2013-02-02 23:31:00,51.5,39.7,29.31,SW,219,9.0,10.0,64,0.00,,,0.06,0,Wunderground v.1.15,2013-02-02 22:31:00,
2013-02-02 23:41:00,51.4,40.0,29.31,SSE,156,10.0,10.0,65,0.00,,,0.06,0,Wunderground v.1.15,2013-02-02 22:41:00,
2013-02-02 23:46:00,51.4,40.0,29.31,SW,233,10.0,11.0,65,0.00,,,0.06,0,Wunderground v.1.15,2013-02-02 22:46:00,
2013-02-02 23:51:00,51.4,40.0,29.32,SW,228,11.0,15.0,65,0.00,,,0.06,0,Wunderground v.1.15,2013-02-02 22:51:00,
2013-02-02 23:56:00,51.4,40.0,29.32,SW,223,10.0,15.0,65,0.00,,,0.06,0,Wunderground v.1.15,2013-02-02 22:56:00,